Time,TemperatureF,DewpointF,PressureIn,WindDirection,WindDirectionDegrees,WindSpeedMPH,WindSpeedGustMPH,Humidity,HourlyPrecipIn,Conditions,Clouds,dailyrainin,SoftwareType,DateUTC
2013-03-23 00:00:00,34.0,22.4,30.03,SSW,202,0.0,4.9,62,0.00,,SKC,0.00,VWS V13.01,2013-03-23 05:00:00,
2013-03-23 00:10:00,34.0,22.4,30.03,SSW,207,3.1,5.4,62,0.00,,SKC,0.00,VWS V13.01,2013-03-23 05:10:00,
2013-03-23 00:20:00,33.8,22.2,30.03,SSW,204,0.0,4.9,62,0.00,,SKC,0.00,VWS V13.01,2013-03-23 05:20:00,
2013-03-23 00:30:00,33.8,22.2,30.03,SSW,205,2.7,4.0,62,0.00,,SKC,0.00,VWS V13.01,2013-03-23 05:30:00,
2013-03-23 00:40:00,33.8,22.5,30.03,South,190,0.0,5.4,63,0.00,,SKC,0.00,VWS V13.01,2013-03-23 05:40:00,
2013-03-23 00:50:00,33.8,22.9,30.03,SSW,203,0.0,3.6,64,0.00,,SKC,0.00,VWS V13.01,2013-03-23 05:50:00,
2013-03-23 01:00:00,33.8,23.7,30.03,South,184,5.4,6.3,66,0.00,,SKC,0.00,VWS V13.01,2013-03-23 06:00:00,
2013-03-23 01:10:00,33.6,23.9,30.03,SSW,192,0.0,6.3,67,0.00,,SKC,0.00,VWS V13.01,2013-03-23 06:10:00,
2013-03-23 01:20:00,33.4,23.7,30.03,SSW,205,0.0,4.9,67,0.00,,SKC,0.00,VWS V13.01,2013-03-23 06:20:00,
2013-03-23 01:30:00,33.4,24.0,30.03,SSW,199,0.0,3.6,68,0.00,,SKC,0.00,VWS V13.01,2013-03-23 06:30:00,
2013-03-23 01:40:00,33.3,23.9,30.03,SSW,193,0.0,0.0,68,0.00,,SKC,0.00,VWS V13.01,2013-03-23 06:40:00,
2013-03-23 01:50:00,33.3,23.9,30.03,SSW,199,0.0,4.9,68,0.00,,SKC,0.00,VWS V13.01,2013-03-23 06:50:00,
2013-03-23 02:00:00,33.3,23.9,30.03,SSW,199,0.0,0.0,68,0.00,,SKC,0.00,VWS V13.01,2013-03-23 07:00:00,
2013-03-23 02:10:00,33.3,23.9,30.03,SSW,199,0.0,0.0,68,0.00,,SKC,0.00,VWS V13.01,2013-03-23 07:10:00,
2013-03-23 02:20:00,33.3,23.9,30.03,SSW,201,0.0,4.0,68,0.00,,SKC,0.00,VWS V13.01,2013-03-23 07:20:00,
2013-03-23 02:30:00,33.3,23.9,30.03,SSW,199,0.0,0.0,68,0.00,,SKC,0.00,VWS V13.01,2013-03-23 07:30:00,
2013-03-23 02:40:00,33.3,23.9,30.03,SSW,201,0.0,3.6,68,0.00,,SKC,0.00,VWS V13.01,2013-03-23 07:40:00,
2013-03-23 02:50:00,33.3,23.9,30.03,SSW,200,0.0,3.1,68,0.00,,SKC,0.00,VWS V13.01,2013-03-23 07:50:00,
2013-03-23 03:00:00,33.3,23.9,30.03,SSW,205,0.0,0.0,68,0.00,,SKC,0.00,VWS V13.01,2013-03-23 08:00:00,
2013-03-23 03:10:00,33.3,23.9,30.03,SSW,205,0.0,0.0,68,0.00,,SKC,0.00,VWS V13.01,2013-03-23 08:10:00,
2013-03-23 03:20:00,33.3,23.9,30.03,South,187,0.0,3.6,68,0.00,,SKC,0.00,VWS V13.01,2013-03-23 08:20:00,
2013-03-23 03:30:00,33.3,23.9,30.03,South,191,0.0,3.1,68,0.00,,SKC,0.00,VWS V13.01,2013-03-23 08:30:00,
2013-03-23 03:40:00,33.3,23.9,30.03,SSW,202,0.0,0.0,68,0.00,,SKC,0.00,VWS V13.01,2013-03-23 08:40:00,
2013-03-23 03:50:00,33.3,23.9,30.03,SSW,202,0.0,0.0,68,0.00,,SKC,0.00,VWS V13.01,2013-03-23 08:50:00,
2013-03-23 04:00:00,33.3,23.9,30.03,SSE,155,0.0,2.7,68,0.00,,SKC,0.00,VWS V13.01,2013-03-23 09:00:00,
2013-03-23 04:10:00,33.3,23.9,30.00,South,181,0.0,0.0,68,0.00,,SKC,0.00,VWS V13.01,2013-03-23 09:10:00,
2013-03-23 04:20:00,33.3,23.9,30.00,South,176,0.0,0.0,68,0.00,,SKC,0.00,VWS V13.01,2013-03-23 09:20:00,
2013-03-23 04:30:00,33.3,23.9,30.00,South,185,3.1,4.0,68,0.00,,SKC,0.00,VWS V13.01,2013-03-23 09:30:00,
2013-03-23 04:40:00,33.3,23.9,30.00,South,182,0.0,3.6,68,0.00,,SKC,0.00,VWS V13.01,2013-03-23 09:40:00,
2013-03-23 04:50:00,33.3,23.5,30.00,South,179,0.0,0.0,67,0.00,,SKC,0.00,VWS V13.01,2013-03-23 09:50:00,
2013-03-23 05:00:00,33.1,23.3,30.00,South,177,0.0,0.0,67,0.00,,SKC,0.00,VWS V13.01,2013-03-23 10:00:00,
2013-03-23 05:10:00,33.1,23.3,30.00,South,177,0.0,4.0,67,0.00,,SKC,0.00,VWS V13.01,2013-03-23 10:10:00,
2013-03-23 05:20:00,33.1,23.3,30.00,SSE,163,0.0,4.5,67,0.00,,SKC,0.00,VWS V13.01,2013-03-23 10:20:00,
2013-03-23 05:30:00,33.1,23.0,30.03,South,190,0.0,5.8,66,0.00,,SKC,0.00,VWS V13.01,2013-03-23 10:30:00,
2013-03-23 05:40:00,33.3,23.1,30.03,SE,127,0.0,0.0,66,0.00,,SKC,0.00,VWS V13.01,2013-03-23 10:40:00,
2013-03-23 05:50:00,33.3,22.8,30.03,SE,134,0.0,4.0,65,0.00,,SKC,0.00,VWS V13.01,2013-03-23 10:50:00,
2013-03-23 06:00:00,33.3,22.4,30.00,SSE,151,0.0,4.0,64,0.00,,SKC,0.00,VWS V13.01,2013-03-23 11:00:00,
2013-03-23 06:10:00,33.1,22.2,30.00,South,182,0.0,3.6,64,0.00,,SKC,0.00,VWS V13.01,2013-03-23 11:10:00,
2013-03-23 06:20:00,33.1,22.2,30.00,South,180,4.9,4.9,64,0.00,,SKC,0.00,VWS V13.01,2013-03-23 11:20:00,
2013-03-23 06:30:00,32.9,21.7,30.03,South,190,2.2,5.8,63,0.00,,SKC,0.00,VWS V13.01,2013-03-23 11:30:00,
2013-03-23 06:40:00,33.1,21.5,30.03,South,173,0.0,5.4,62,0.00,,SKC,0.00,VWS V13.01,2013-03-23 11:40:00,
2013-03-23 06:50:00,33.1,21.5,30.03,South,182,0.0,3.1,62,0.00,,SKC,0.00,VWS V13.01,2013-03-23 11:50:00,
2013-03-23 07:00:00,33.1,21.1,30.03,SSE,154,0.0,0.0,61,0.00,,SKC,0.00,VWS V13.01,2013-03-23 12:00:00,
2013-03-23 07:10:00,33.1,21.1,30.03,SSE,154,0.0,0.0,61,0.00,,SKC,0.00,VWS V13.01,2013-03-23 12:10:00,
2013-03-23 07:30:00,33.1,20.3,30.03,South,173,0.0,0.0,59,0.00,,SKC,0.00,VWS V13.01,2013-03-23 12:30:00,
2013-03-23 07:40:00,33.1,20.3,30.03,South,191,0.0,0.0,59,0.00,,SKC,0.00,VWS V13.01,2013-03-23 12:40:00,
2013-03-23 07:50:00,33.1,19.9,30.03,South,189,0.0,6.3,58,0.00,,SKC,0.00,VWS V13.01,2013-03-23 12:50:00,
2013-03-23 08:00:00,33.1,19.9,30.03,SSW,204,3.6,4.0,58,0.00,,SKC,0.00,VWS V13.01,2013-03-23 13:00:00,
2013-03-23 08:10:00,33.1,20.3,30.03,SSE,157,0.0,3.6,59,0.00,,SKC,0.00,VWS V13.01,2013-03-23 13:10:00,
2013-03-23 08:20:00,33.3,20.5,30.03,South,181,0.0,6.3,59,0.00,,SKC,0.00,VWS V13.01,2013-03-23 13:20:00,
2013-03-23 08:30:00,33.6,20.8,30.03,South,175,0.0,5.4,59,0.00,,SKC,0.00,VWS V13.01,2013-03-23 13:30:00,
2013-03-23 08:40:00,33.8,20.6,30.03,South,173,0.0,6.3,58,0.00,,SKC,0.00,VWS V13.01,2013-03-23 13:40:00,
2013-03-23 08:50:00,34.0,20.8,30.03,South,180,2.7,6.3,58,0.00,,SKC,0.00,VWS V13.01,2013-03-23 13:50:00,
2013-03-23 09:00:00,34.2,20.9,30.06,South,185,0.0,5.4,58,0.00,,SKC,0.00,VWS V13.01,2013-03-23 14:00:00,
2013-03-23 09:10:00,34.3,21.1,30.06,South,179,4.0,6.3,58,0.00,,SKC,0.00,VWS V13.01,2013-03-23 14:10:00,
2013-03-23 09:20:00,34.5,21.3,30.06,South,187,3.6,5.8,58,0.00,,SKC,0.00,VWS V13.01,2013-03-23 14:20:00,
2013-03-23 09:30:00,34.9,21.6,30.06,SSE,165,4.0,5.8,58,0.00,,SKC,0.00,VWS V13.01,2013-03-23 14:30:00,
2013-03-23 09:40:00,35.1,21.4,30.06,SSE,165,4.0,8.7,57,0.00,,SKC,0.00,VWS V13.01,2013-03-23 14:40:00,
2013-03-23 09:50:00,35.4,21.7,30.06,South,184,6.3,6.3,57,0.00,,SKC,0.00,VWS V13.01,2013-03-23 14:50:00,
2013-03-23 10:00:00,35.6,21.5,30.06,East,90,0.0,8.3,56,0.00,,SKC,0.00,VWS V13.01,2013-03-23 15:00:00,
2013-03-23 10:10:00,35.8,21.6,30.06,South,185,0.0,6.3,56,0.00,,SKC,0.00,VWS V13.01,2013-03-23 15:10:00,
2013-03-23 10:20:00,35.8,21.6,30.06,SSW,208,3.6,5.4,56,0.00,,SKC,0.00,VWS V13.01,2013-03-23 15:20:00,
2013-03-23 10:30:00,36.0,21.8,30.06,South,178,5.4,6.3,56,0.00,,SKC,0.00,VWS V13.01,2013-03-23 15:30:00,
2013-03-23 10:40:00,36.3,22.1,30.06,East,92,0.0,6.3,56,0.00,,SKC,0.00,VWS V13.01,2013-03-23 15:40:00,
2013-03-23 10:50:00,36.7,21.2,30.06,SSE,158,2.2,6.3,53,0.00,,SKC,0.00,VWS V13.01,2013-03-23 15:50:00,
2013-03-23 11:00:00,37.4,20.5,30.06,South,179,5.8,5.8,50,0.00,,SKC,0.00,VWS V13.01,2013-03-23 16:00:00,
2013-03-23 11:10:00,37.6,19.2,30.06,South,190,0.0,5.8,47,0.00,,SKC,0.00,VWS V13.01,2013-03-23 16:10:00,
2013-03-23 11:20:00,37.6,19.2,30.06,SE,133,0.0,5.4,47,0.00,,SKC,0.00,VWS V13.01,2013-03-23 16:20:00,
2013-03-23 11:30:00,37.6,19.2,30.06,SW,218,5.4,5.4,47,0.00,,SKC,0.00,VWS V13.01,2013-03-23 16:30:00,
2013-03-23 11:40:00,37.6,18.2,30.06,SSE,167,2.7,7.6,45,0.00,,SKC,0.00,VWS V13.01,2013-03-23 16:40:00,
2013-03-23 11:50:00,37.8,19.4,30.06,South,187,4.9,6.3,47,0.00,,SKC,0.00,VWS V13.01,2013-03-23 16:50:00,
2013-03-23 12:00:00,37.9,18.5,30.06,South,189,4.0,7.6,45,0.00,,SKC,0.00,VWS V13.01,2013-03-23 17:00:00,
2013-03-23 12:10:00,37.9,18.5,30.06,South,180,5.4,8.7,45,0.00,,SKC,0.00,VWS V13.01,2013-03-23 17:10:00,
2013-03-23 12:20:00,38.3,18.8,30.06,South,189,3.1,6.3,45,0.00,,SKC,0.00,VWS V13.01,2013-03-23 17:20:00,
2013-03-23 12:40:00,39.0,19.5,30.03,South,178,5.8,9.2,45,0.00,,SKC,0.00,VWS V13.01,2013-03-23 17:40:00,
2013-03-23 12:50:00,39.4,19.3,30.03,South,181,4.9,8.7,44,0.00,,SKC,0.00,VWS V13.01,2013-03-23 17:50:00,
2013-03-23 13:00:00,40.1,20.0,30.03,South,181,3.1,8.1,44,0.00,,SKC,0.00,VWS V13.01,2013-03-23 18:00:00,
2013-03-23 13:10:00,40.6,20.5,30.00,SW,225,5.4,8.7,44,0.00,,SKC,0.00,VWS V13.01,2013-03-23 18:10:00,
2013-03-23 13:20:00,40.6,19.4,30.00,South,189,6.3,8.7,42,0.00,,SKC,0.00,VWS V13.01,2013-03-23 18:20:00,
2013-03-23 13:30:00,40.6,20.5,30.00,SE,137,5.4,9.2,44,0.00,,SKC,0.00,VWS V13.01,2013-03-23 18:30:00,
2013-03-23 13:40:00,40.5,20.3,30.00,SE,146,4.0,10.5,44,0.00,,SKC,0.00,VWS V13.01,2013-03-23 18:40:00,
2013-03-23 13:50:00,40.6,20.5,30.00,SSE,158,0.0,11.0,44,0.00,,SKC,0.00,VWS V13.01,2013-03-23 18:50:00,
2013-03-23 14:00:00,41.2,20.9,29.97,South,173,4.9,8.3,44,0.00,,SKC,0.00,VWS V13.01,2013-03-23 19:00:00,
2013-03-23 14:10:00,41.2,20.9,29.97,SSE,159,7.6,8.1,44,0.00,,SKC,0.00,VWS V13.01,2013-03-23 19:10:00,
2013-03-23 14:20:00,41.0,20.8,29.97,South,186,4.0,8.7,44,0.00,,SKC,0.00,VWS V13.01,2013-03-23 19:20:00,
2013-03-23 14:30:00,41.0,20.8,29.97,South,183,5.8,8.3,44,0.00,,SKC,0.00,VWS V13.01,2013-03-23 19:30:00,
2013-03-23 14:40:00,41.2,20.9,29.97,South,174,4.5,7.6,44,0.00,,SKC,0.00,VWS V13.01,2013-03-23 19:40:00,
2013-03-23 14:50:00,41.0,19.7,29.97,South,175,5.8,10.5,42,0.00,,SKC,0.00,VWS V13.01,2013-03-23 19:50:00,
2013-03-23 15:00:00,40.6,19.4,29.97,SE,130,2.7,8.1,42,0.00,,SKC,0.00,VWS V13.01,2013-03-23 20:00:00,
2013-03-23 15:10:00,40.5,19.2,29.97,SW,221,4.0,8.1,42,0.00,,SKC,0.00,VWS V13.01,2013-03-23 20:10:00,
2013-03-23 15:20:00,40.6,20.5,29.97,South,188,2.2,5.4,44,0.00,,SKC,0.00,VWS V13.01,2013-03-23 20:20:00,
2013-03-23 15:30:00,40.6,19.4,29.97,South,175,4.9,8.1,42,0.00,,SKC,0.00,VWS V13.01,2013-03-23 20:30:00,
2013-03-23 15:40:00,40.6,20.5,29.94,SSE,168,4.0,8.1,44,0.00,,SKC,0.00,VWS V13.01,2013-03-23 20:40:00,
2013-03-23 15:50:00,40.6,19.4,29.94,South,190,3.1,8.3,42,0.00,,SKC,0.00,VWS V13.01,2013-03-23 20:50:00,
2013-03-23 16:00:00,40.8,19.5,29.94,SSW,197,3.1,8.1,42,0.00,,SKC,0.00,VWS V13.01,2013-03-23 21:00:00,
2013-03-23 16:10:00,40.6,22.0,29.94,ESE,107,3.6,5.8,47,0.00,,SKC,0.00,VWS V13.01,2013-03-23 21:10:00,
2013-03-23 16:20:00,39.7,22.2,29.94,ESE,104,0.0,5.8,49,0.00,,SKC,0.00,VWS V13.01,2013-03-23 21:20:00,
2013-03-23 16:30:00,39.6,24.3,29.94,ESE,109,2.2,5.8,54,0.00,,SKC,0.00,VWS V13.01,2013-03-23 21:30:00,
2013-03-23 16:40:00,38.8,25.3,29.94,SE,145,2.7,7.6,58,0.00,,SKC,0.00,VWS V13.01,2013-03-23 21:40:00,
2013-03-23 16:50:00,38.3,26.4,29.94,South,185,0.0,5.4,62,0.00,,SKC,0.00,VWS V13.01,2013-03-23 21:50:00,
2013-03-23 17:00:00,37.6,27.3,29.94,SSW,204,3.6,7.6,66,0.00,,SKC,0.00,VWS V13.01,2013-03-23 22:00:00,
2013-03-23 17:10:00,37.2,28.0,29.94,South,175,3.1,6.7,69,0.00,,SKC,0.00,VWS V13.01,2013-03-23 22:10:00,
2013-03-23 17:30:00,36.9,29.0,29.94,South,176,2.2,5.8,73,0.00,,SKC,0.00,VWS V13.01,2013-03-23 22:30:00,
2013-03-23 17:40:00,36.7,29.2,29.94,SSW,202,3.1,4.0,74,0.00,,SKC,0.00,VWS V13.01,2013-03-23 22:40:00,
2013-03-23 17:50:00,36.1,29.6,29.94,South,170,0.0,7.6,77,0.00,,SKC,0.00,VWS V13.01,2013-03-23 22:50:00,
2013-03-23 18:00:00,36.0,29.8,29.94,South,186,4.0,6.3,78,0.00,,SKC,0.00,VWS V13.01,2013-03-23 23:00:00,
2013-03-23 18:10:00,35.6,29.7,29.94,South,190,0.0,5.8,79,0.00,,SKC,0.00,VWS V13.01,2013-03-23 23:10:00,
2013-03-23 18:20:00,35.4,29.9,29.94,SSE,156,0.0,2.7,80,0.00,,SKC,0.00,VWS V13.01,2013-03-23 23:20:00,
2013-03-23 18:30:00,35.2,30.0,29.97,SSE,158,0.0,2.7,81,0.00,,SKC,0.00,VWS V13.01,2013-03-23 23:30:00,
2013-03-23 18:40:00,35.1,30.1,29.97,SSE,156,0.0,3.1,82,0.00,,SKC,0.00,VWS V13.01,2013-03-23 23:40:00,
2013-03-23 18:50:00,34.9,30.5,29.97,South,170,0.0,5.8,84,0.00,,SKC,0.00,VWS V13.01,2013-03-23 23:50:00,
2013-03-23 19:00:00,34.7,30.7,29.97,ESE,117,0.0,4.5,85,0.00,,SKC,0.00,VWS V13.01,2013-03-24 00:00:00,
2013-03-23 19:10:00,34.5,31.3,29.97,South,180,0.0,4.0,88,0.00,,SKC,0.00,VWS V13.01,2013-03-24 00:10:00,
2013-03-23 19:20:00,34.3,31.7,29.97,SSE,165,0.0,3.1,90,0.00,,SKC,0.00,VWS V13.01,2013-03-24 00:20:00,
2013-03-23 19:30:00,34.2,32.1,29.97,ESE,112,0.0,3.6,92,0.00,,SKC,0.00,VWS V13.01,2013-03-24 00:30:00,
2013-03-23 19:40:00,34.0,32.7,29.97,SSE,164,0.0,4.9,95,0.00,,SKC,0.00,VWS V13.01,2013-03-24 00:40:00,
2013-03-23 19:50:00,33.8,33.0,29.97,South,178,4.0,6.3,97,0.00,,SKC,0.00,VWS V13.01,2013-03-24 00:50:00,
2013-03-23 20:00:00,33.4,33.4,29.97,SE,143,0.0,4.0,100,0.00,,SKC,0.00,VWS V13.01,2013-03-24 01:00:00,
2013-03-23 20:10:00,33.3,33.3,29.97,ENE,67,4.0,5.4,100,0.00,,SKC,0.00,VWS V13.01,2013-03-24 01:10:00,
2013-03-23 20:20:00,32.9,32.9,29.97,ENE,74,5.4,6.7,100,0.00,,SKC,0.00,VWS V13.01,2013-03-24 01:20:00,
2013-03-23 20:30:00,32.5,32.5,29.97,East,99,0.0,6.3,100,0.00,,SKC,0.00,VWS V13.01,2013-03-24 01:30:00,
2013-03-23 20:40:00,32.4,32.4,29.97,SSE,165,0.0,5.8,100,0.00,,SKC,0.00,VWS V13.01,2013-03-24 01:40:00,
2013-03-23 20:50:00,32.2,32.2,29.97,SSE,149,2.7,5.4,100,0.00,,SKC,0.00,VWS V13.01,2013-03-24 01:50:00,
2013-03-23 21:00:00,31.8,31.8,29.97,SSE,158,0.0,3.6,100,0.00,,SKC,0.00,VWS V13.01,2013-03-24 02:00:00,
2013-03-23 21:10:00,31.5,31.5,30.00,NE,56,0.0,0.0,100,0.00,,SKC,0.00,VWS V13.01,2013-03-24 02:10:00,
2013-03-23 21:20:00,30.9,30.9,30.00,SSE,154,0.0,0.0,100,0.00,,SKC,0.00,VWS V13.01,2013-03-24 02:20:00,
2013-03-23 21:30:00,30.6,30.6,30.00,East,97,0.0,0.0,100,0.00,,SKC,0.00,VWS V13.01,2013-03-24 02:30:00,
2013-03-23 21:40:00,30.2,30.2,30.00,East,82,0.0,0.0,100,0.00,,SKC,0.00,VWS V13.01,2013-03-24 02:40:00,
2013-03-23 21:50:00,30.2,30.2,30.00,NNE,30,0.0,0.0,100,0.00,,SKC,0.00,VWS V13.01,2013-03-24 02:50:00,
2013-03-23 22:00:00,30.2,30.2,30.00,NE,55,0.0,0.0,100,0.00,,SKC,0.00,VWS V13.01,2013-03-24 03:00:00,
2013-03-23 22:10:00,30.2,30.2,29.97,SSE,160,0.0,0.0,100,0.00,,SKC,0.00,VWS V13.01,2013-03-24 03:10:00,
2013-03-23 22:20:00,30.0,30.0,29.97,East,94,0.0,0.0,100,0.00,,SKC,0.00,VWS V13.01,2013-03-24 03:20:00,
2013-03-23 22:30:00,30.0,30.0,29.97,ESE,103,0.0,0.0,100,0.00,,SKC,0.00,VWS V13.01,2013-03-24 03:30:00,
2013-03-23 22:40:00,30.0,30.0,29.97,South,181,0.0,0.0,100,0.00,,SKC,0.00,VWS V13.01,2013-03-24 03:40:00,
2013-03-23 22:50:00,30.0,30.0,29.97,SSE,157,0.0,0.0,100,0.00,,SKC,0.00,VWS V13.01,2013-03-24 03:50:00,
2013-03-23 23:00:00,30.0,30.0,29.97,SE,137,0.0,0.0,100,0.00,,SKC,0.00,VWS V13.01,2013-03-24 04:00:00,
2013-03-23 23:10:00,30.0,30.0,29.97,SSE,167,0.0,0.0,100,0.00,,SKC,0.00,VWS V13.01,2013-03-24 04:10:00,
2013-03-23 23:20:00,30.0,30.0,29.97,ESE,104,0.0,0.0,100,0.00,,SKC,0.00,VWS V13.01,2013-03-24 04:20:00,
2013-03-23 23:30:00,30.0,30.0,29.94,ESE,109,0.0,0.0,100,0.00,,SKC,0.00,VWS V13.01,2013-03-24 04:30:00,
2013-03-23 23:40:00,30.0,30.0,29.94,ESE,114,0.0,0.0,100,0.00,,SKC,0.00,VWS V13.01,2013-03-24 04:40:00,
2013-03-23 23:50:00,30.2,30.2,29.94,ESE,122,0.0,0.0,100,0.00,,SKC,0.00,VWS V13.01,2013-03-24 04:50:00,